Regional Weather Roundup
Issued by NWS

Home | Current Version | Previous Version | Graphics & Text | Print | Product List | Glossary On
Versions: 1 2 3 4 5 6 7 8 9 10 11 12 13 14 15 16 17 18 19 20 21 22 23 24 25 26 27
000
ASUS45 KBOU 240307
RWRCO

WEATHER ROUNDUP FOR COLORADO
NATIONAL WEATHER SERVICE DENVER/BOULDER CO
900 PM MDT SUN JUL 23 2017

NOTE: "FAIR" INDICATES FEW OR NO CLOUDS BELOW 12000 FEET WITH NO
SIGNIFICANT WEATHER AND/OR OBSTRUCTIONS TO VISIBILITY.

COZ001>005-013-030-031-240400-
...NORTHWEST COLORADO...

CITY           SKY/WX    TMP DP  RH WIND       PRES   REMARKS
CRAIG          FAIR      72  37  28 CALM      30.11R
HAYDEN         FAIR     N/A N/A N/A SW6       30.14S
MEEKER         FAIR      71  38  29 E3        30.13R
RABBIT EARS PA MOCLDY    61  37  41 SE5       30.51S
STEAMBOAT SPGS FAIR      71  39  32 E3        30.17S
WALDEN         FAIR      63  41  45 SE8       30.31R
$$

COZ006>008-011-240400-
...WEST CENTRAL VALLEYS...

CITY           SKY/WX    TMP DP  RH WIND       PRES   REMARKS
GRAND JUNCTION FAIR      86  46  24 SE21      30.00R
MONTROSE       FAIR      76  47  35 SE13      30.14R
EAGLE          LGT RAIN  77  45  32 N13       30.21R
RIFLE          FAIR      83  45  26 S21G33    30.06R
DELTA          FAIR      83  44  25 N5        30.10R
NUCLA          FAIR      73  45  35 E5        30.19S
$$

COZ017>023-064>068-240400-
...SOUTHWEST COLORADO...

CITY           SKY/WX    TMP DP  RH WIND       PRES   REMARKS
DURANGO        FAIR      70  48  45 CALM      30.22R
CORTEZ         FAIR      73  52  47 N6        30.14S
PAGOSA SPRINGS FAIR      69  47  44 CALM      30.32R
TELLURIDE      CLOUDY    59  47  66 CALM      30.44R
WOLF CREEK PAS MOCLDY    50  39  66 SW3       30.70R
$$

COZ009-010-012-014-032>034-037-058>063-240400-
...CENTRAL COLORADO...

CITY           SKY/WX    TMP DP  RH WIND       PRES   REMARKS
ASPEN          FAIR      70  43  37 SE21G28   30.31S
BUENA VISTA    CLOUDY    63  47  57 CALM      30.40R
COPPER MTN     FAIR      54  36  50 S21G26    30.66R
BERTHOUD PASS  FAIR      45  32  61 SE17G25   30.69R
COTTONWOOD PAS MOCLDY    61  43  51 CALM      30.54R
GUNNISON       LGT RAIN  60  53  77 NE9       30.39R
KREMMLING      FAIR      73  41  31 NW3       30.27R
LEADVILLE      FAIR      58  40  51 S12       30.50R
SALIDA         FAIR      68  49  51 N3        30.42R
SUNLIGHT       FAIR      54  37  54 S8        30.56R
WILKERSON PASS FAIR      50  39  66 SW7       30.64S
$$

COZ069>075-240400-
...SAN LUIS VALLEY/SANGRE DE CRISTO MOUNTAINS...

CITY           SKY/WX    TMP DP  RH WIND       PRES   REMARKS
ALAMOSA        MOCLDY    67  50  54 E8        30.30R
DEL NORTE      MOCLDY    69  42  38 NE10      30.35S
LA VETA PASS   NOT AVBL
SAGUACHE         N/A    N/A N/A N/A MISG        N/A
$$

COZ035-036-038>040-240400-
...NORTHERN COLORADO FRONT RANGE...

CITY           SKY/WX    TMP DP  RH WIND       PRES   REMARKS
DENVER INTL AP FAIR      74  47  38 S12       30.12R
DMNS CITY PARK   N/A     76  45  32 S7G13     30.12R
AURORA         PTCLDY    73  52  46 S8        30.15R
FRONT RANGE AP FAIR      79  45  29 SE15      30.15R
ERIE MUNI ARPT FAIR      81  41  24 S6        30.09R
BOULDER MUN AP FAIR      79  43  27 S3        30.09S
CENTENNIAL     FAIR      72  49  44 S6        30.16R
BROOMFIELD     FAIR      79  41  25 S7        30.13S
FORT COLLINS   FAIR      77  51  40 S7        30.08
LONGMONT       FAIR      82  43  24 CALM      30.09S
$$

COZ041-046-047-076>085-087-088-240400-
...PIKES PEAK/PALMER DIVIDE AND SOUTHERN FOOTHILLS...

CITY           SKY/WX    TMP DP  RH WIND       PRES   REMARKS
COLO. SPRINGS  MOCLDY    73  54  51 E10       30.24R
A. F. ACADEMY  FAIR      72  50  46 S9        30.25R
SCHRIEVER AFB  FAIR      68  51  54 S8        30.24R
CHEYENNE MTN   FAIR      72  47  41 S14G22    30.25R
ELLICOTT       FAIR     N/A N/A N/A SE12      30.22R
FALCON           N/A     65  51  60 S12       30.30R
FORT CARSON    FAIR      74  51  45 SE7       30.20R
LIMON          FAIR      71  51  49 SE9       30.17R
MONUMENT HILL  FAIR      64  50  59 S13       30.29S
CANON CITY     CLOUDY    79  55  44 NE7       30.16R
WALSENBURG     FAIR      75  52  43 SE8       30.21R
TRINIDAD       FAIR      71  53  52 W13       30.20R
$$

COZ042>045-048>051-090-091-240400-
...NORTHEAST COLORADO...

CITY           SKY/WX    TMP DP  RH WIND       PRES   REMARKS
GREELEY ARPT   NOT AVBL
AKRON          FAIR      76  51  41 SE14      30.11R
BURLINGTON     FAIR      70  57  63 SE9       30.10R
WRAY           NOT AVBL
YUMA           FAIR      68  52  56 S8        30.08R
STERLING       NOT AVBL
HOLYOKE        FAIR      73  59  60 S8        30.05R
FORT MORGAN    FAIR      75  46  35 SE7       30.09R
$$

COZ086-089-092>099-240400-
...SOUTHEAST COLORADO...

CITY           SKY/WX    TMP DP  RH WIND       PRES   REMARKS
PUEBLO         FAIR      82  54  37 E9        30.10R
LA JUNTA       FAIR      79  57  46 E8        30.09R
LAMAR          FAIR      77  61  57 SE9       30.05R
SPRINGFIELD      N/A     72  61  68 E8        30.12R
$$




USA.gov is the U.S. government's official web portal to all federal, state and local government web resources and services.